Terminal Aerodrome Forecast
Issued by NWS Buffalo, NY

Home | Current Version | Previous Version | Text Only | Print | Product List | Glossary On
Versions: 1 2 3 4 5 6 7 8 9 10 11 12 13 14 15 16 17 18 19 20 21 22 23 24 25 26 27 28 29
000
FTUS41 KBUF 271100
TAFBUF
TAF
KBUF 271130Z 2712/2812 03012KT 3SM -SN VCSH OVC010
     FM271500 03010KT P6SM -SN OVC015
     FM272000 36010KT P6SM BKN025
     FM272100 36010KT P6SM BKN080
     FM280100 33006KT P6SM BKN110
     FM280200 32005KT P6SM SCT250
     FM280500 27004KT P6SM SCT250=

USA.gov is the U.S. government's official web portal to all federal, state and local government web resources and services.